Hourly Weather Smolnaya Vershina

Today, 9 July, Thursday

Time Temperature Precipitation Wind Pressure Humidity
00:00 +26°C° 0 mm 2 mps 739 mmHg 64%
01:00 +25°C° 0 mm 3 mps 739 mmHg 67%
02:00 +25°C° 0 mm 3 mps 739 mmHg 70%
03:00 +24°C° 0 mm 3 mps 740 mmHg 68%
04:00 +22°C° 0.1 mm 3 mps 740 mmHg 74%
05:00 +22°C° 0.1 mm 3 mps 740 mmHg 80%
06:00 +21°C° 0.1 mm 4 mps 740 mmHg 86%
07:00 +22°C° 0 mm 3 mps 740 mmHg 82%
08:00 +25°C° 0 mm 2 mps 741 mmHg 78%
09:00 +26°C° 0 mm 1 mps 741 mmHg 75%
10:00 +25°C° 0.3 mm 2 mps 742 mmHg 77%
11:00 +25°C° 0.3 mm 3 mps 742 mmHg 78%
12:00 +23°C° 0.3 mm 4 mps 743 mmHg 80%
13:00 +22°C° 1.9 mm 4 mps 743 mmHg 83%
14:00 +21°C° 1.9 mm 5 mps 743 mmHg 87%
15:00 +19°C° 1.9 mm 5 mps 743 mmHg 91%
16:00 +20°C° 0.3 mm 5 mps 743 mmHg 87%
17:00 +20°C° 0.3 mm 5 mps 744 mmHg 84%
18:00 +20°C° 0.3 mm 5 mps 744 mmHg 81%
19:00 +19°C° 0 mm 5 mps 744 mmHg 82%
20:00 +19°C° 0 mm 4 mps 745 mmHg 82%
21:00 +18°C° 0 mm 4 mps 745 mmHg 83%
22:00 +17°C° 0 mm 3 mps 746 mmHg 86%
23:00 +16°C° 0 mm 3 mps 746 mmHg 88%

Tomorrow, 10 July, Friday

Time Temperature Precipitation Wind Pressure Humidity
00:00 +16°C° 0 mm 3 mps 746 mmHg 90%
01:00 +14°C° 0 mm 3 mps 746 mmHg 91%
02:00 +14°C° 0 mm 3 mps 747 mmHg 92%
03:00 +13°C° 0 mm 3 mps 747 mmHg 93%
04:00 +14°C° 0 mm 3 mps 747 mmHg 90%
05:00 +14°C° 0 mm 3 mps 748 mmHg 87%
06:00 +16°C° 0 mm 3 mps 748 mmHg 85%
07:00 +17°C° 0 mm 3 mps 748 mmHg 78%
08:00 +19°C° 0 mm 3 mps 749 mmHg 72%
09:00 +21°C° 0 mm 2 mps 749 mmHg 65%
10:00 +22°C° 0 mm 3 mps 749 mmHg 61%
11:00 +24°C° 0 mm 3 mps 749 mmHg 58%
12:00 +25°C° 0 mm 3 mps 749 mmHg 54%
13:00 +25°C° 0 mm 3 mps 749 mmHg 54%
14:00 +25°C° 0 mm 3 mps 749 mmHg 53%
15:00 +25°C° 0 mm 3 mps 750 mmHg 53%
16:00 +25°C° 0 mm 3 mps 750 mmHg 56%
17:00 +24°C° 0 mm 3 mps 750 mmHg 60%
18:00 +24°C° 0 mm 3 mps 750 mmHg 63%
19:00 +21°C° 0 mm 3 mps 750 mmHg 69%
20:00 +19°C° 0 mm 2 mps 750 mmHg 75%
21:00 +18°C° 0 mm 2 mps 751 mmHg 81%
22:00 +17°C° 0 mm 2 mps 751 mmHg 82%
23:00 +16°C° 0 mm 2 mps 751 mmHg 83%

Day after tomorrow, 11 July, Saturday

Time Temperature Precipitation Wind Pressure Humidity
00:00 +16°C° 0 mm 2 mps 751 mmHg 84%
01:00 +15°C° 0 mm 2 mps 751 mmHg 86%
02:00 +15°C° 0 mm 1 mps 751 mmHg 87%
03:00 +14°C° 0 mm 1 mps 752 mmHg 88%
04:00 +15°C° 0 mm 1 mps 752 mmHg 85%
05:00 +15°C° 0 mm 1 mps 752 mmHg 83%
06:00 +16°C° 0 mm 1 mps 752 mmHg 81%
07:00 +19°C° 0 mm 1 mps 752 mmHg 73%
08:00 +21°C° 0 mm 1 mps 752 mmHg 66%
09:00 +23°C° 0 mm 1 mps 752 mmHg 59%
10:00 +24°C° 0 mm 1 mps 752 mmHg 54%
11:00 +25°C° 0 mm 1 mps 752 mmHg 49%
12:00 +26°C° 0 mm 1 mps 752 mmHg 44%
13:00 +26°C° 0 mm 1 mps 752 mmHg 43%
14:00 +27°C° 0 mm 1 mps 752 mmHg 42%
15:00 +27°C° 0 mm 1 mps 751 mmHg 41%
16:00 +27°C° 0 mm 1 mps 751 mmHg 45%
17:00 +26°C° 0 mm 1 mps 751 mmHg 49%
18:00 +26°C° 0 mm 1 mps 751 mmHg 53%
19:00 +24°C° 0 mm 1 mps 751 mmHg 57%
20:00 +22°C° 0 mm 1 mps 751 mmHg 61%
21:00 +20°C° 0 mm 1 mps 751 mmHg 65%
22:00 +19°C° 0 mm 1 mps 751 mmHg 67%
23:00 +18°C° 0 mm 1 mps 751 mmHg 68%

12 July, Sunday

Time Temperature Precipitation Wind Pressure Humidity
00:00 +16°C° 0 mm 0 mps 750 mmHg 70%
01:00 +18°C° 0 mm 1 mps 750 mmHg 71%
02:00 +16°C° 0 mm 1 mps 750 mmHg 73%
03:00 +16°C° 0 mm 1 mps 750 mmHg 74%
04:00 +18°C° 0 mm 1 mps 750 mmHg 75%
05:00 +18°C° 0 mm 1 mps 750 mmHg 77%
06:00 +19°C° 0 mm 1 mps 750 mmHg 78%
07:00 +20°C° 0 mm 2 mps 750 mmHg 73%
08:00 +23°C° 0 mm 2 mps 750 mmHg 68%
09:00 +25°C° 0 mm 2 mps 750 mmHg 63%
10:00 +26°C° 0 mm 2 mps 749 mmHg 58%
11:00 +27°C° 0 mm 2 mps 749 mmHg 54%
12:00 +28°C° 0 mm 3 mps 749 mmHg 49%
13:00 +29°C° 0 mm 3 mps 749 mmHg 50%
14:00 +29°C° 0 mm 3 mps 749 mmHg 50%
15:00 +29°C° 0 mm 3 mps 748 mmHg 50%
16:00 +29°C° 0 mm 3 mps 748 mmHg 55%
17:00 +29°C° 0 mm 2 mps 747 mmHg 59%
18:00 +28°C° 0 mm 2 mps 747 mmHg 64%
19:00 +26°C° 0 mm 2 mps 747 mmHg 69%
20:00 +25°C° 0 mm 2 mps 747 mmHg 75%
21:00 +22°C° 0 mm 3 mps 747 mmHg 81%
22:00 +21°C° 0.1 mm 3 mps 746 mmHg 83%
23:00 +21°C° 0.1 mm 3 mps 746 mmHg 86%

13 July, Monday

Time Temperature Precipitation Wind Pressure Humidity
00:00 +20°C° 0.1 mm 3 mps 746 mmHg 89%
01:00 +20°C° 0.1 mm 2 mps 746 mmHg 91%
02:00 +20°C° 0.1 mm 2 mps 745 mmHg 92%
03:00 +19°C° 0.1 mm 2 mps 745 mmHg 94%
04:00 +20°C° 0 mm 2 mps 745 mmHg 92%
05:00 +21°C° 0 mm 2 mps 745 mmHg 90%
06:00 +21°C° 0 mm 2 mps 745 mmHg 88%
07:00 +24°C° 0 mm 3 mps 744 mmHg 82%
08:00 +25°C° 0 mm 3 mps 744 mmHg 75%
09:00 +26°C° 0 mm 4 mps 744 mmHg 69%
10:00 +28°C° 0 mm 4 mps 744 mmHg 64%
11:00 +29°C° 0 mm 4 mps 744 mmHg 60%
12:00 +30°C° 0 mm 4 mps 744 mmHg 56%
13:00 +29°C° 0.8 mm 4 mps 744 mmHg 60%
14:00 +28°C° 0.8 mm 5 mps 743 mmHg 65%
15:00 +28°C° 0.8 mm 5 mps 743 mmHg 70%
16:00 +27°C° 0.6 mm 5 mps 743 mmHg 73%
17:00 +26°C° 0.6 mm 5 mps 742 mmHg 75%
18:00 +25°C° 0.6 mm 5 mps 742 mmHg 78%
19:00 +23°C° 0.1 mm 4 mps 742 mmHg 81%
20:00 +22°C° 0.1 mm 3 mps 742 mmHg 84%
21:00 +21°C° 0.1 mm 3 mps 742 mmHg 87%
22:00 +21°C° 0.1 mm 3 mps 742 mmHg 87%
23:00 +21°C° 0.1 mm 2 mps 742 mmHg 88%

14 July, Tuesday

Time Temperature Precipitation Wind Pressure Humidity
00:00 +21°C° 0.1 mm 2 mps 741 mmHg 88%
01:00 +21°C° 0 mm 2 mps 741 mmHg 88%
02:00 +20°C° 0 mm 2 mps 741 mmHg 88%
03:00 +20°C° 0 mm 3 mps 741 mmHg 89%
04:00 +20°C° 0 mm 3 mps 741 mmHg 88%
05:00 +20°C° 0 mm 3 mps 741 mmHg 88%
06:00 +20°C° 0 mm 3 mps 741 mmHg 87%
07:00 +22°C° 0 mm 3 mps 741 mmHg 84%
08:00 +23°C° 0 mm 4 mps 741 mmHg 81%
09:00 +25°C° 0 mm 4 mps 741 mmHg 77%
10:00 +26°C° 1 mm 4 mps 740 mmHg 75%
11:00 +27°C° 1 mm 5 mps 740 mmHg 73%
12:00 +28°C° 1 mm 5 mps 740 mmHg 71%
13:00 +27°C° 2.3 mm 5 mps 740 mmHg 73%
14:00 +27°C° 2.3 mm 4 mps 739 mmHg 75%
15:00 +27°C° 2.3 mm 4 mps 739 mmHg 77%
16:00 +26°C° 1.3 mm 3 mps 739 mmHg 80%
17:00 +26°C° 1.3 mm 3 mps 739 mmHg 82%
18:00 +25°C° 1.3 mm 2 mps 739 mmHg 85%
19:00 +24°C° 0.1 mm 2 mps 739 mmHg 87%
20:00 +23°C° 0.1 mm 2 mps 739 mmHg 89%
21:00 +23°C° 0.1 mm 2 mps 739 mmHg 91%
22:00 +21°C° 0 mm 2 mps 739 mmHg 93%
23:00 +21°C° 0 mm 2 mps 739 mmHg 94%
Show more